This is the latest recevied weather packets stored in our database for station/object W3AJR. If no packets are shown the sender has not sent any weather packets the latest 1 day(s).
| Time | Temp. | Humidity | Pressure | Rain* | Wind** | Luminosity | Snow |
|---|---|---|---|---|---|---|---|
| 1777973604 | 13.89° C | 73% | 1011.4 hPa | 0 mm | 0.45 m/s, 227° | 0 W/m² | - |
| 1777973301 | 14.44° C | 72% | 1011.4 hPa | 0 mm | 0.45 m/s, 198° | 0 W/m² | - |
| 1777972999 | 14.44° C | 71% | 1011.5 hPa | 0 mm | 1.34 m/s, 244° | 0 W/m² | - |
| 1777972696 | 14.44° C | 71% | 1011.4 hPa | 0 mm | 0.45 m/s, 197° | 0 W/m² | - |
| 1777972394 | 14.44° C | 70% | 1011.3 hPa | 0 mm | 1.34 m/s, 214° | 0 W/m² | - |
| 1777972092 | 14.44° C | 72% | 1011.3 hPa | 0 mm | 1.34 m/s, 205° | 0 W/m² | - |
| 1777971790 | 14.44° C | 72% | 1011.4 hPa | 0 mm | 0 m/s | 0 W/m² | - |
| 1777971487 | 13.89° C | 73% | 1011.1 hPa | 0 mm | 1.79 m/s, 199° | 0 W/m² | - |
| 1777971185 | 13.89° C | 74% | 1011.1 hPa | 0 mm | 1.34 m/s, 184° | 0 W/m² | - |
| 1777970882 | 13.89° C | 75% | 1011.2 hPa | 0 mm | 0.45 m/s, 205° | 0 W/m² | - |
| 1777970581 | 13.89° C | 76% | 1011.1 hPa | 0 mm | 0.45 m/s, 221° | 0 W/m² | - |
| 1777970277 | 13.89° C | 77% | 1011.3 hPa | 0 mm | 0.89 m/s, 214° | 0 W/m² | - |
| 1777969974 | 13.89° C | 77% | 1011.2 hPa | 0 mm | 0.89 m/s, 202° | 0 W/m² | - |
| 1777969670 | 13.89° C | 77% | 1011.2 hPa | 0 mm | 0 m/s | 0 W/m² | - |
| 1777969368 | 13.89° C | 77% | 1011 hPa | 0 mm | 1.34 m/s, 206° | 0 W/m² | - |
| 1777969063 | 13.89° C | 77% | 1011.1 hPa | 0 mm | 0.89 m/s, 188° | 0 W/m² | - |
| 1777968761 | 13.89° C | 78% | 1011.1 hPa | 0 mm | 0 m/s | 0 W/m² | - |
| 1777968457 | 14.44° C | 77% | 1011 hPa | 0 mm | 0 m/s | 0 W/m² | - |
| 1777968153 | 14.44° C | 76% | 1011 hPa | 0 mm | 0.45 m/s, 218° | 0 W/m² | - |
| 1777967849 | 14.44° C | 76% | 1010.8 hPa | 0 mm | 1.34 m/s, 178° | 0 W/m² | - |
| 1777967546 | 15° C | 75% | 1010.9 hPa | 0 mm | 1.34 m/s, 202° | 0 W/m² | - |
| 1777967244 | 15° C | 75% | 1010.9 hPa | 0 mm | 0.45 m/s, 225° | 0 W/m² | - |
| 1777966941 | 15° C | 75% | 1010.8 hPa | 0 mm | 0.89 m/s, 197° | 0 W/m² | - |
| 1777966638 | 15° C | 74% | 1010.9 hPa | 0 mm | 1.34 m/s, 199° | 0 W/m² | - |
| 1777966336 | 15° C | 74% | 1011 hPa | 0 mm | 0.45 m/s, 197° | 0 W/m² | - |
* Rain latest hour (hover to see other rain measurements)
** Current wind speed in m/s (hover to see current wind gust speed)